Weather History for Al Hoceima, Morocco

Change the Weather History Date:

Friday, July 26, 2013

  Actual Average Record
Temperature  
Mean Temperature 77 °F -  
Max Temperature 83 °F 79 °F 87 °F (2008)
Min Temperature 71 °F 67 °F 64 °F (2001)
Cooling Degree Days 12    
Growing Degree Days 27 (Base 50)    
Moisture  
Dew Point 72 °F    
Average Humidity 82    
Maximum Humidity 89    
Minimum Humidity 74    
Precipitation  
Precipitation 0.00 in - - ()
Sea Level Pressure  
Sea Level Pressure 29.95 in    
Wind  
Wind Speed 5 mph ()    
Max Wind Speed 16 mph    
Max Gust Speed -    
Visibility 5.4 miles    
Events      
Averages and records for this station are not official NWS values.
T = Trace of Precipitation, MM = Missing Value Source: Averaged Metar Reports

Daily Weather History Graph

Daily Weather History Graph

Search for Another Location

Airport:

Trip Planner

Search our weather history database for the weather conditions in past years. The results will help you decide how hot, cold, wet, or windy it might be!

Date:

Astronomy

Jul. 26, 2013 Rise Set
Actual Time 6:19 AM WEST 8:23 PM WEST
Civil Twilight 5:51 AM WEST 8:51 PM WEST
Nautical Twilight 5:17 AM WEST 9:26 PM WEST
Astronomical Twilight 4:39 AM WEST 10:03 PM WEST
Moon 10:42 PM WEST (7/26) 10:28 AM WEST (7/26)
Length of Visible Light 15h 00m
Length of Day
14h 03m
Waning Gibbous, 82% of the Moon is Illuminated
Jul 26
Waning Gibbous
Jul 29
Last Quarter
Aug 6
New
Aug 14
First Quarter
Aug 21
Full

Hourly Weather History & Observations

Time (WEST) Temp. Heat Index Dew Point Humidity Pressure Visibility Wind Dir Wind Speed Gust Speed Precip Events Conditions
1:00 AM 75 °F - 72 °F 88% 29.99 in 5 mi West 2.3 mph - -   Clear
1:00 AM 75.2 °F - 71.6 °F 89% 29.98 in - West 2.3 mph - N/A   Clear
7:00 AM 72 °F - 68 °F 85% 29.97 in 5 mi WSW 2.3 mph - -   Partly Cloudy
7:00 AM 71.6 °F - 68.0 °F 88% 29.95 in 5.0 mi WSW 2.3 mph - N/A   Partly Cloudy
9:00 AM 75.2 °F - 71.6 °F 89% 29.98 in 5.0 mi NW 2.3 mph - N/A   Scattered Clouds
10:00 AM 81 °F - 76 °F 80% 29.98 in 5 mi North 6.9 mph - -   Partly Cloudy
10:00 AM 80.6 °F 86.2 °F 75.2 °F 84% 29.98 in - North 6.9 mph - N/A   Partly Cloudy
11:00 AM 78.8 °F - 73.4 °F 83% 29.95 in 5.0 mi North 6.9 mph - N/A   Partly Cloudy
1:00 PM 80 °F - 74 °F 76% 29.98 in 5 mi NNE 11.5 mph - -   Scattered Clouds
1:00 PM 80.6 °F 85.4 °F 73.4 °F 79% 29.98 in 5.0 mi NNE 11.5 mph - N/A   Partly Cloudy
2:00 PM 82.4 °F 88.2 °F 73.4 °F 74% 29.95 in - NW 16.1 mph - N/A   Partly Cloudy
3:00 PM 80.6 °F 85.4 °F 73.4 °F 79% 29.95 in 5.0 mi NNW 11.5 mph - N/A   Partly Cloudy
4:00 PM 80 °F - 73 °F 75% 29.94 in 6 mi North 9.2 mph - -   Scattered Clouds
4:00 PM 80.6 °F 85.4 °F 73.4 °F 79% 29.92 in 6.2 mi North 9.2 mph - N/A   Partly Cloudy
5:00 PM 80.6 °F 85.4 °F 73.4 °F 79% 29.92 in 6.2 mi North 9.2 mph - N/A   Partly Cloudy
7:00 PM 80 °F - 73 °F 75% 29.91 in 6 mi North 6.9 mph - -  
7:00 PM 80.6 °F 85.4 °F 73.4 °F 79% 29.89 in - North 6.9 mph - N/A   Clear
8:00 PM 78.8 °F - 71.6 °F 78% 29.89 in - NNE 4.6 mph - N/A   Clear
10:00 PM 76 °F - 71 °F 82% 29.93 in 6 mi North 4.6 mph - -  
10:00 PM 75.2 °F - 71.6 °F 89% 29.92 in - North 4.6 mph - N/A   Clear
11:00 PM 75.2 °F - 71.6 °F 89% 29.92 in - North 4.6 mph - N/A   Clear